Temp
19 20 21 22 23 23 23 24 24 25 26 26 26 27 27 27 27 25 34 35 32 30 27 30 32 33 34 36 38 39 38 39 40 39 39 40 39 39 39 37 37 37 37 36 32
18 19 20 21 22 23 23 24 24 25 26 26 26 26 27 27 26 33 34 33 32 31 30 33 35 35 37 38 40 39 40 40 41 41 40 40 40 39 39 38 37 36 36 34 32
18 18 19 20 21 22 23 23 24 25 25 26 27 27 27 27 32 38 33 33 32 32 34 35 36 37 38 41 41 41 40 41 41 41 41 41 39 40 39 38 38 37 35 35 33
18 18 18 19 21 22 22 23 23 24 25 26 27 27 28 26 36 33 32 32 31 30 34 36 37 37 39 40 41 39 41 41 42 41 41 40 41 40 39 40 40 39 37 35 34
17 18 18 19 20 21 22 23 23 24 26 26 27 27 28 34 38 32 32 31 29 29 35 37 38 38 38 40 41 40 41 42 42 42 41 41 41 40 40 40 39 39 37 36 35
17 17 18 19 20 21 22 23 24 24 26 27 27 27 28 35 34 30 29 27 31 33 36 37 38 39 39 39 39 41 40 41 42 42 41 40 41 41 40 41 39 38 37 37 36
16 18 18 19 20 21 22 23 24 25 26 27 27 26 32 35 35 31 31 31 33 35 37 38 38 39 40 39 41 40 39 41 42 42 41 41 40 40 41 40 39 38 37 37 36
16 17 17 18 19 21 22 24 24 26 26 27 27 25 33 35 35 34 33 33 34 36 36 38 37 39 39 40 40 39 40 39 42 41 41 40 38 40 42 41 39 38 38 37 36
14 16 18 18 19 20 22 24 25 26 25 26 26 30 35 32 34 35 35 36 36 36 36 37 37 38 39 38 38 39 38 39 41 41 41 40 39 41 42 41 39 39 38 37 37
14 15 17 18 19 20 23 25 25 24 24 24 28 32 35 36 37 36 36 36 38 37 37 37 37 37 38 38 37 38 39 40 40 41 41 40 40 42 42 41 40 40 39 38 37
14 14 16 18 19 21 23 26 29 29 29 34 36 35 37 37 35 36 37 36 37 38 36 37 37 37 38 39 39 39 39 39 40 41 40 39 40 41 42 42 42 41 40 38 38
14 15 15 17 19 21 21 29 28 26 28 34 35 36 37 36 36 37 37 36 36 36 37 37 37 38 39 39 39 38 38 38 39 40 40 40 39 41 41 42 42 42 41 39 39
14 14 16 18 20 21 25 26 25 26 29 33 35 36 36 37 36 37 38 37 37 36 37 37 38 39 38 38 37 38 37 38 38 40 41 39 39 39 41 42 42 42 42 41 39
14 14 15 17 20 23 26 25 25 26 28 33 35 36 37 37 36 38 39 38 37 37 38 38 39 38 37 37 37 37 39 39 38 38 37 40 37 39 41 41 42 42 42 41 41
14 14 15 15 15 24 25 24 25 27 27 35 36 37 38 36 37 38 38 38 36 37 37 37 38 37 37 37 38 37 39 38 38 38 38 38 38 39 41 40 41 42 41 41 41
14 14 15 18 18 21 23 24 26 27 28 34 36 35 35 37 37 38 39 39 38 37 38 38 39 39 38 38 38 39 38 38 38 38 36 38 38 39 40 40 41 42 41 40 40
14 15 14 12 23 22 22 25 27 28 33 33 34 35 35 35 36 37 36 36 36 34 35 37 37 38 38 37 38 38 37 35 35 36 36 39 39 39 41 41 41 40 40 40 39
15 17 15 16 20 20 23 26 26 30 32 34 34 35 35 36 36 36 36 35 37 36 36 35 35 37 38 37 37 37 37 36 34 36 38 40 37 39 41 41 41 41 40 39 39
15 20 21 21 19 20 25 26 28 30 33 32 33 33 33 35 36 36 36 36 37 37 35 36 36 39 39 39 38 37 36 38 37 38 37 39 39 40 41 40 41 41 38 37 36
12 19 23 21 20 22 25 25 29 32 32 31 31 33 33 35 35 35 36 37 37 38 38 37 35 39 39 39 39 38 39 36 37 34 34 38 38 39 39 39 39 38 36 35 35
14 24 22 21 20 24 26 27 29 31 31 30 31 32 33 33 34 35 36 37 38 38 39 38 37 37 38 37 37 37 37 37 38 38 36 36 37 39 39 38 38 36 35 34 34
20 24 21 21 23 27 27 28 25 30 31 31 31 31 31 32 32 33 35 36 37 37 37 38 37 35 36 38 38 39 37 37 36 35 37 37 37 39 38 38 38 36 35 34 34
21 25 23 22 24 28 28 28 29 29 29 30 30 31 32 31 31 33 34 35 35 35 36 37 36 35 35 37 38 37 38 38 38 37 35 35 35 38 38 36 35 35 34 34 34
21 25 26 24 26 26 27 27 28 29 29 29 30 31 31 30 32 31 33 35 34 35 26 32 36 34 35 35 37 36 36 37 37 36 36 37 36 36 34 34 34 34 34 33 33
22 25 25 26 27 27 27 27 26 27 29 29 29 29 29 29 30 31 33 34 34 26 33 34 33 35 36 37 37 37 37 37 37 37 36 36 32 33 33 33 33 34 34 33 33
22 23 24 25 25 26 23 27 27 26 28 28 28 29 31 29 30 31 33 33 33 34 34 34 32 34 34 36 37 36 37 38 38 37 37 37 31 33 33 33 33 33 33 33 33
21 21 21 23 26 26 26 26 27 27 27 29 29 30 30 31 32 33 34 34 33 32 32 32 32 32 33 36 35 35 36 37 37 38 37 34 33 34 32 31 31 31 32 32 33
Height
825 823 820 817 814 811 808 805 802 798 796 795 791 786 782 778 775 773 768 764 765 767 771 773 772 769 766 758 749 740 756 754 750 750 749 735 740 738 739 750 748 750 749 754 769
826 823 820 817 814 811 808 805 801 798 795 792 789 786 781 776 772 767 763 763 764 766 770 769 765 763 759 751 743 745 748 750 734 733 737 735 738 741 742 748 754 755 755 761 769
826 823 820 817 814 811 808 805 801 797 794 790 787 783 779 775 768 752 759 760 762 765 766 764 761 758 757 741 740 736 748 734 730 728 726 728 737 733 739 747 742 752 756 760 766
826 823 820 816 813 810 807 804 801 797 793 789 786 782 778 776 774 756 758 759 762 764 765 762 758 759 753 749 733 754 731 730 725 724 728 733 724 733 736 733 729 735 747 756 762
827 823 819 815 811 808 805 802 799 795 791 787 784 781 778 767 754 755 758 760 763 766 761 759 758 755 759 742 738 744 734 726 720 719 727 724 730 732 732 724 730 735 745 752 757
826 822 818 814 809 805 801 798 795 792 788 785 782 780 778 773 757 755 759 762 762 763 758 756 754 748 752 749 748 733 736 731 722 718 722 733 726 725 725 721 730 736 744 747 751
825 821 817 812 808 803 798 793 790 787 785 783 780 778 771 761 756 758 759 761 761 759 755 753 752 752 743 750 734 735 748 730 721 715 725 722 735 732 718 719 730 735 740 742 747
825 821 816 811 806 801 795 790 786 782 780 779 777 777 765 754 754 756 757 759 759 756 754 750 752 749 748 739 742 750 742 753 717 718 719 728 753 731 708 716 730 731 735 739 743
824 820 815 809 804 798 792 786 781 778 776 775 775 771 760 750 751 750 752 751 753 754 752 752 752 751 747 757 763 748 764 750 732 716 722 732 740 717 707 714 724 726 731 735 739
823 819 815 809 802 797 789 782 776 774 773 775 772 771 748 744 739 742 747 748 746 749 751 752 751 757 751 758 779 760 750 737 743 722 721 732 728 710 702 710 715 717 721 727 733
823 818 813 807 801 795 787 779 773 770 765 751 741 742 734 738 742 741 740 745 744 745 760 748 762 764 748 739 738 740 744 748 731 719 730 737 731 718 705 701 702 710 712 720 724
822 816 811 806 799 794 789 778 781 784 772 745 739 736 732 737 739 733 736 745 748 757 745 752 758 740 732 732 739 742 751 752 736 725 729 731 733 711 706 703 697 697 702 711 716
821 814 809 802 797 793 789 784 783 781 772 742 730 728 728 733 737 729 728 732 739 749 743 750 738 726 736 740 753 748 751 747 747 729 720 732 740 726 704 694 691 691 691 694 706
819 813 809 801 799 793 784 786 783 781 776 740 724 716 719 719 730 721 717 727 733 740 734 735 721 733 738 743 744 755 729 734 741 748 762 722 762 723 705 703 696 689 691 694 697
817 813 810 808 805 792 788 787 784 779 793 715 706 701 703 718 715 712 712 716 734 731 732 738 730 734 738 739 732 745 726 733 734 745 745 740 747 724 703 713 704 691 696 695 694
814 811 806 806 802 794 790 787 782 786 782 725 704 714 718 706 710 702 702 707 710 726 720 723 706 715 724 722 724 723 734 733 738 742 765 741 741 731 712 706 699 689 690 696 697
812 808 804 805 793 792 791 784 784 777 724 730 720 711 711 714 712 708 715 723 733 750 746 729 724 713 715 731 718 726 743 771 772 762 761 717 730 720 695 690 694 696 695 697 698
806 801 796 794 792 793 789 783 785 747 737 711 714 705 714 703 703 706 714 724 712 720 730 743 750 722 712 727 730 732 736 756 778 759 737 705 738 719 688 685 687 689 695 698 699
802 795 790 789 791 792 786 782 766 744 724 726 718 730 723 706 703 703 708 713 704 705 732 731 731 699 700 705 717 730 741 720 738 728 740 719 708 690 686 690 688 689 700 705 706
803 794 784 785 788 789 782 776 751 729 731 734 746 724 727 710 710 710 705 694 700 689 692 709 732 694 695 699 702 716 705 744 733 770 767 728 725 717 700 698 693 700 709 714 712
803 782 782 785 788 780 774 760 748 732 736 745 740 731 721 718 709 707 700 688 682 686 681 695 711 714 695 714 720 719 726 721 714 722 747 750 729 686 696 697 702 707 713 717 716
798 782 782 784 784 762 761 751 749 739 731 737 738 736 733 723 727 715 704 689 679 679 694 687 705 725 712 693 694 695 710 717 737 746 725 727 725 684 692 696 697 709 713 714 714
794 778 778 782 776 753 747 747 744 747 743 739 739 735 729 732 740 719 703 693 691 696 698 693 709 729 725 704 691 708 702 698 706 716 733 743 736 689 692 703 706 708 714 716 717
797 771 765 775 763 760 750 751 750 739 742 739 737 731 734 737 725 729 711 697 697 695 709 699 702 719 727 715 695 714 710 702 709 725 724 720 715 707 710 712 712 713 713 718 720
791 769 766 761 756 753 752 752 757 748 736 734 738 738 740 744 736 728 715 702 699 716 704 705 725 709 702 693 693 693 695 701 709 710 722 711 731 717 722 714 714 713 714 717 721
792 783 776 766 760 757 758 751 750 751 739 738 739 733 723 736 733 731 715 711 708 699 702 700 724 711 709 694 692 700 687 688 691 696 702 701 730 712 718 711 715 717 717 720 721
797 794 791 771 755 753 753 749 745 743 743 730 728 726 725 720 711 708 701 702 704 714 711 716 717 721 726 697 699 713 694 687 687 686 692 715 717 707 715 722 726 724 722 722 719
Wind_Speed
21 22 21 21 22 22 23 23 23 24 23 23 22 23 24 24 22 5 11 5 9 16 14 12 11 10 9 14 12 14 10 4 6 9 5 8 7 4 3 10 3 3 7 19 22
22 22 23 22 22 22 22 23 24 24 24 24 23 24 24 26 15 17 9 8 9 19 17 15 11 8 8 9 6 12 9 6 5 6 6 8 5 5 7 10 6 9 8 19 22
22 23 24 24 24 24 23 23 24 24 24 25 24 24 24 22 13 3 7 10 13 18 13 13 8 9 14 12 9 10 11 7 5 7 3 2 8 3 5 10 10 12 13 17 20
21 22 24 25 24 24 25 25 24 24 24 24 24 23 21 7 5 4 4 11 17 18 13 12 11 12 14 11 4 9 12 6 4 3 5 5 4 7 7 7 3 9 16 18 18
23 24 25 25 25 25 25 26 25 25 24 24 23 20 11 9 9 4 11 15 21 14 16 11 11 11 15 14 11 13 10 10 12 5 6 12 9 5 7 7 5 12 16 18 17
24 24 26 27 28 27 26 26 26 25 24 24 20 15 9 15 4 8 15 22 19 17 17 14 11 9 15 17 15 18 13 15 16 9 5 9 10 10 6 7 8 13 16 17 17
24 25 26 27 28 29 30 27 26 25 24 21 16 7 12 14 2 10 17 22 18 15 13 14 16 15 13 12 17 14 17 17 17 2 5 6 13 11 7 11 10 14 15 16 16
24 25 26 28 28 29 30 28 28 24 21 15 9 7 10 3 8 14 18 19 18 14 15 10 9 14 16 15 16 18 17 15 12 4 8 7 7 12 7 13 12 14 15 15 17
25 25 25 27 29 29 30 28 26 22 13 7 5 10 17 6 13 18 20 20 20 16 16 11 12 14 16 17 16 18 16 17 17 6 4 7 15 8 4 6 11 14 14 15 16
27 28 27 27 27 29 29 24 22 14 7 8 12 8 18 14 16 19 22 21 15 16 14 14 15 16 15 15 15 18 17 15 14 7 6 14 16 13 8 6 11 12 16 16 16
27 29 29 28 28 26 23 12 8 7 17 16 7 13 3 8 6 13 17 21 18 17 18 20 16 17 20 19 20 18 20 17 16 11 11 14 18 17 13 12 10 11 14 15 17
27 28 32 30 28 13 11 9 6 8 11 18 21 21 20 7 7 15 20 16 20 21 20 19 19 19 18 16 14 15 15 18 17 18 18 13 19 14 12 13 11 11 15 15 16
28 29 31 31 19 5 12 9 4 12 8 20 23 23 23 23 20 17 19 21 20 22 22 20 20 18 17 14 14 18 18 17 17 17 19 12 18 17 19 14 6 7 7 14 16
27 29 30 34 9 16 9 3 8 8 7 21 25 23 23 19 24 26 23 21 23 22 19 20 19 19 11 14 15 19 16 17 17 14 13 17 15 17 8 9 9 7 9 10 13
28 30 28 22 16 11 9 10 11 6 7 10 25 12 25 25 19 24 31 20 25 22 18 19 19 18 20 18 18 17 14 15 13 14 17 20 12 12 11 7 11 10 6 3 4
29 30 32 10 14 15 14 12 9 8 11 10 5 11 18 24 27 25 25 27 20 25 22 22 19 18 16 17 20 18 15 15 14 15 14 18 17 16 13 1 7 6 8 6 2
30 31 27 15 9 6 13 11 8 12 12 20 12 15 21 24 25 26 21 21 22 22 24 25 21 15 11 17 16 18 15 11 13 13 13 17 18 16 6 6 2 7 8 4 1
34 30 14 13 8 9 12 10 16 15 22 3 6 12 14 17 21 26 25 22 28 29 20 22 21 23 17 18 14 17 17 13 15 12 12 17 9 10 10 5 4 6 3 1 6
32 16 14 10 7 9 8 13 16 17 6 13 15 13 19 21 11 20 24 25 26 25 26 21 22 22 27 20 19 18 17 20 19 17 12 12 11 9 5 10 8 6 7 4 8
21 17 14 4 5 10 9 16 18 20 7 7 14 22 15 18 16 20 17 22 26 26 25 24 22 16 18 15 20 22 15 11 11 16 16 13 12 8 8 5 13 11 9 7 9
10 5 6 2 8 8 11 16 17 22 5 12 17 14 14 10 10 16 16 18 18 24 23 22 20 17 16 12 19 15 16 14 17 15 12 13 8 12 9 12 10 9 9 10 11
9 5 5 7 7 9 12 17 11 16 12 14 14 14 15 15 11 18 14 6 4 12 16 18 16 12 18 17 17 20 20 20 13 15 13 12 13 10 10 10 7 10 10 10 11
5 8 5 6 7 9 10 11 8 13 16 17 15 17 16 16 11 15 15 10 5 9 6 17 18 14 18 16 15 11 16 16 20 17 19 13 6 9 10 12 7 9 11 10 11
5 4 6 7 11 11 7 8 12 13 12 16 17 16 15 16 13 10 10 3 2 9 11 7 12 16 16 19 16 22 19 18 16 11 14 17 10 13 10 8 8 8 10 11 12
5 3 7 4 8 10 5 5 9 11 10 11 11 18 17 16 17 16 14 12 8 5 3 6 12 17 17 21 17 19 21 23 23 18 17 7 19 16 8 10 9 5 7 9 10
5 5 11 12 11 10 7 8 7 7 16 12 13 16 15 18 18 15 14 12 10 7 6 3 8 14 13 18 16 19 13 19 22 19 18 12 11 13 4 12 12 10 5 6 7
8 12 6 11 11 11 4 9 7 8 13 14 15 11 13 15 15 19 15 7 6 7 6 5 8 7 16 18 14 18 18 14 10 15 9 4 13 13 12 12 11 10 9 6 1
Wind_Direction
5 3 359 356 354 353 350 348 347 346 345 343 339 336 335 329 327 274 244 271 188 172 161 171 197 232 240 263 249 274 280 36 54 39 122 126 115 80 69 123 100 82 44 129 148
2 359 356 354 350 348 345 344 342 341 338 336 334 335 331 326 307 255 222 239 206 176 171 181 200 210 238 243 246 262 293 24 60 44 27 105 318 114 217 124 140 127 113 133 155
358 356 353 351 347 342 341 338 337 335 333 331 331 332 327 327 274 167 192 220 195 178 187 211 267 227 257 252 242 279 317 1 37 41 5 327 160 226 252 166 156 164 161 155 166
356 353 350 347 342 338 335 333 333 329 327 326 327 328 323 306 314 85 174 179 174 176 201 223 244 249 265 274 193 269 292 297 320 332 306 263 312 175 232 68 99 156 164 166 177
353 349 347 344 339 334 332 330 328 326 323 321 323 325 329 247 264 120 152 155 167 197 210 216 241 253 272 291 303 266 277 304 294 308 311 302 258 270 221 213 164 147 166 174 181
351 348 345 340 336 332 328 325 324 322 319 317 318 316 260 272 104 150 159 169 186 207 217 229 245 277 285 283 286 305 307 293 281 271 255 279 261 207 214 196 174 165 178 183 182
349 346 344 340 334 329 325 320 319 317 315 313 310 297 269 257 231 180 179 189 199 214 233 235 255 259 260 267 267 285 282 280 267 183 302 273 248 223 207 170 188 182 188 190 190
349 345 342 340 335 329 321 317 315 310 307 306 299 243 267 239 219 196 194 201 215 231 250 268 252 258 269 279 277 267 274 277 269 156 139 258 40 245 176 171 197 194 192 200 193
348 344 340 339 336 329 321 314 308 303 294 288 255 229 267 163 210 209 201 207 208 224 238 255 247 248 250 244 256 250 251 255 263 157 288 236 291 167 179 190 201 198 206 202 201
347 344 339 337 335 330 322 312 296 281 267 250 257 267 243 235 214 212 208 215 214 215 220 228 240 245 229 248 247 248 244 235 258 284 176 253 249 261 181 206 217 221 197 206 209
345 342 338 338 334 330 331 321 233 205 223 239 203 225 161 220 207 213 204 202 227 227 224 218 237 237 243 240 243 274 280 292 296 307 287 274 289 288 274 273 209 216 208 207 208
341 342 339 335 331 328 314 294 37 334 293 261 252 261 260 192 247 221 182 200 208 225 224 240 228 247 262 261 278 271 267 261 267 273 274 284 274 276 295 282 279 214 197 202 210
339 341 338 334 328 300 310 287 305 331 263 268 238 235 229 231 240 235 194 212 208 224 234 235 241 232 235 250 248 255 258 266 273 284 278 250 270 272 257 247 233 254 261 199 204
338 339 339 339 301 329 293 317 316 318 270 261 217 226 231 229 230 231 222 222 228 239 238 245 237 254 239 248 246 257 251 258 265 264 266 255 262 246 265 239 287 180 171 207 193
335 335 333 341 304 295 349 313 311 252 265 231 211 202 208 206 215 211 219 216 235 230 240 257 235 245 238 233 242 258 276 272 269 269 269 256 262 285 272 223 242 119 75 32 315
331 330 329 338 277 270 299 296 268 232 243 255 178 199 223 205 223 237 205 213 227 240 250 247 261 234 241 242 242 255 255 255 253 251 251 246 253 260 251 299 274 76 77 358 351
326 323 310 283 265 306 306 272 224 236 223 259 233 223 212 220 221 227 201 218 219 227 236 245 230 239 243 256 233 226 228 239 236 231 244 243 226 237 337 349 323 338 26 342 77
326 319 293 243 272 285 265 234 243 242 247 88 313 297 244 219 224 210 225 220 220 230 240 227 234 225 213 228 240 209 233 244 246 246 255 209 221 253 250 333 293 236 88 119 135
330 317 265 260 248 236 246 228 228 255 344 305 299 267 260 238 263 213 217 229 232 214 233 240 226 234 215 212 223 242 213 241 264 276 279 272 219 207 227 242 243 192 100 105 111
326 304 261 166 214 214 236 249 251 257 338 300 264 268 248 251 194 241 216 222 235 229 215 239 256 239 188 212 225 233 237 234 242 260 276 246 246 256 166 218 78 94 107 132 137
299 272 81 206 201 222 233 234 241 268 248 268 277 295 288 318 324 278 218 237 220 232 224 225 243 233 205 194 226 207 237 253 262 237 262 249 252 50 77 76 88 95 124 149 144
289 263 97 155 226 224 239 239 270 284 261 247 267 290 301 310 298 288 284 333 75 276 236 212 229 235 227 205 225 239 210 223 247 247 272 300 295 93 102 107 91 114 135 145 147
284 290 151 220 252 235 227 262 279 270 266 257 253 252 265 278 282 257 289 64 37 263 240 230 235 227 243 242 205 239 250 230 222 244 267 269 280 75 92 82 88 131 142 149 142
280 260 163 203 267 286 321 258 248 230 254 274 278 277 274 271 257 271 287 135 11 340 356 309 243 230 246 230 226 200 229 247 245 248 235 249 218 125 95 84 87 148 150 158 160
241 290 5 273 230 230 267 298 297 297 245 257 260 244 253 254 256 263 249 280 185 119 247 242 249 250 246 270 276 265 212 217 236 233 252 298 59 54 57 79 73 92 149 163 173
297 340 354 291 282 273 237 252 266 293 301 266 247 266 248 233 252 254 256 269 276 177 225 228 254 259 259 253 252 257 256 213 218 218 235 237 121 115 104 75 67 60 104 162 182
352 296 269 292 256 251 352 290 303 329 297 269 272 289 257 265 230 246 261 305 328 298 339 300 304 234 244 236 238 240 243 248 239 213 259 345 91 114 96 77 59 53 47 29 186